Total_Precipitation_Accumulation
0.15 0.18 0.15 0.13 0.11 0.14 0.16 0.11 0.07 0.09 0.13 0.09 0.03 0.03 0.02 0.03 0.03 0.06 0.10 0.07 0.08 0.09 0.11 0.13 0.15 0.15 0.15 0.17 0.17 0.15 0.13 0.12 0.12 0.12 0.10 0.08 0.07 0.07 0.07 0.08 0.10 0.10 0.10
0.18 0.18 0.16 0.17 0.17 0.17 0.19 0.20 0.16 0.12 0.12 0.11 0.05 0.03 0.03 0.05 0.06 0.08 0.11 0.10 0.11 0.13 0.19 0.22 0.22 0.19 0.19 0.22 0.23 0.22 0.21 0.20 0.20 0.21 0.19 0.17 0.14 0.13 0.13 0.12 0.13 0.12 0.11
0.17 0.18 0.23 0.27 0.26 0.24 0.23 0.22 0.21 0.17 0.14 0.13 0.11 0.09 0.07 0.06 0.07 0.09 0.12 0.16 0.16 0.18 0.19 0.21 0.22 0.23 0.22 0.25 0.27 0.26 0.27 0.26 0.25 0.24 0.24 0.25 0.24 0.21 0.21 0.21 0.20 0.19 0.16
0.22 0.29 0.36 0.38 0.38 0.36 0.37 0.38 0.34 0.32 0.29 0.26 0.24 0.23 0.18 0.17 0.15 0.15 0.15 0.19 0.22 0.24 0.22 0.19 0.19 0.20 0.20 0.19 0.20 0.22 0.23 0.24 0.26 0.28 0.30 0.31 0.30 0.30 0.28 0.28 0.28 0.25 0.23
0.38 0.49 0.55 0.58 0.59 0.60 0.59 0.52 0.50 0.46 0.45 0.41 0.32 0.32 0.25 0.23 0.24 0.21 0.20 0.21 0.23 0.25 0.25 0.23 0.20 0.18 0.15 0.15 0.15 0.15 0.16 0.18 0.24 0.26 0.26 0.28 0.32 0.34 0.31 0.30 0.31 0.31 0.28
0.74 0.83 0.85 0.87 0.85 0.83 0.76 0.68 0.64 0.56 0.49 0.45 0.35 0.30 0.27 0.27 0.29 0.25 0.21 0.17 0.16 0.17 0.17 0.17 0.17 0.17 0.13 0.11 0.09 0.09 0.10 0.11 0.14 0.17 0.19 0.22 0.28 0.30 0.27 0.26 0.25 0.27 0.28
1.26 1.27 1.21 1.18 1.11 1.07 1.02 0.96 0.82 0.72 0.63 0.54 0.49 0.43 0.32 0.26 0.23 0.20 0.17 0.13 0.13 0.14 0.15 0.13 0.10 0.10 0.10 0.09 0.07 0.06 0.07 0.09 0.11 0.15 0.17 0.20 0.24 0.25 0.25 0.23 0.23 0.24 0.25
1.78 1.73 1.66 1.58 1.45 1.32 1.17 1.04 0.93 0.84 0.71 0.58 0.54 0.51 0.41 0.29 0.20 0.15 0.14 0.13 0.12 0.11 0.10 0.09 0.09 0.08 0.07 0.06 0.06 0.05 0.05 0.06 0.07 0.12 0.18 0.25 0.27 0.27 0.27 0.27 0.25 0.26 0.25
2.24 2.11 1.95 1.80 1.66 1.51 1.38 1.19 1.01 0.88 0.73 0.59 0.51 0.47 0.45 0.39 0.28 0.19 0.15 0.13 0.11 0.09 0.08 0.07 0.06 0.06 0.05 0.05 0.05 0.05 0.05 0.04 0.05 0.08 0.14 0.22 0.27 0.28 0.28 0.28 0.29 0.31 0.32
2.26 2.06 1.96 1.92 1.75 1.49 1.22 0.99 0.79 0.65 0.56 0.47 0.40 0.34 0.31 0.28 0.28 0.23 0.17 0.12 0.10 0.09 0.07 0.06 0.05 0.04 0.04 0.04 0.06 0.07 0.07 0.06 0.06 0.07 0.09 0.13 0.17 0.21 0.26 0.32 0.36 0.38 0.40
2.06 1.86 1.72 1.56 1.32 1.04 0.78 0.59 0.46 0.38 0.34 0.32 0.29 0.27 0.25 0.23 0.21 0.22 0.18 0.12 0.10 0.08 0.08 0.07 0.06 0.05 0.04 0.04 0.07 0.10 0.10 0.08 0.07 0.08 0.09 0.12 0.14 0.17 0.21 0.26 0.32 0.36 0.39
1.68 1.37 1.10 0.85 0.68 0.56 0.44 0.37 0.31 0.27 0.24 0.21 0.19 0.17 0.16 0.15 0.15 0.16 0.17 0.13 0.10 0.08 0.06 0.05 0.04 0.04 0.03 0.03 0.04 0.06 0.06 0.07 0.06 0.06 0.06 0.07 0.08 0.09 0.12 0.18 0.24 0.31 0.38
1.08 0.86 0.67 0.53 0.42 0.34 0.28 0.23 0.20 0.17 0.14 0.13 0.12 0.12 0.11 0.11 0.10 0.10 0.11 0.11 0.10 0.06 0.04 0.03 0.03 0.02 0.02 0.02 0.02 0.03 0.05 0.06 0.05 0.04 0.03 0.03 0.04 0.05 0.06 0.09 0.13 0.19 0.28
0.75 0.57 0.43 0.33 0.28 0.24 0.21 0.18 0.15 0.14 0.13 0.12 0.11 0.10 0.09 0.08 0.08 0.08 0.08 0.08 0.08 0.06 0.04 0.03 0.02 0.01 0.01 0.02 0.02 0.03 0.04 0.06 0.05 0.04 0.04 0.03 0.03 0.03 0.04 0.05 0.07 0.09 0.13
0.40 0.33 0.28 0.23 0.20 0.18 0.17 0.17 0.17 0.15 0.13 0.12 0.10 0.08 0.07 0.07 0.06 0.07 0.07 0.08 0.11 0.11 0.06 0.02 0.01 0.01 0.01 0.01 0.01 0.03 0.05 0.05 0.05 0.05 0.05 0.04 0.03 0.03 0.04 0.04 0.05 0.06 0.07
0.29 0.27 0.24 0.20 0.17 0.14 0.11 0.10 0.10 0.10 0.09 0.09 0.09 0.09 0.09 0.08 0.07 0.07 0.07 0.07 0.09 0.14 0.12 0.04 0.02 0.01 0.01 0.01 0.02 0.05 0.05 0.05 0.06 0.06 0.06 0.06 0.05 0.05 0.05 0.06 0.07 0.08 0.09
0.19 0.18 0.16 0.15 0.13 0.11 0.11 0.10 0.10 0.10 0.11 0.11 0.11 0.10 0.10 0.10 0.09 0.08 0.07 0.07 0.08 0.11 0.14 0.06 0.03 0.03 0.05 0.08 0.08 0.11 0.11 0.11 0.11 0.14 0.15 0.13 0.11 0.10 0.09 0.10 0.11 0.12 0.12
0.12 0.11 0.11 0.11 0.11 0.11 0.10 0.10 0.10 0.09 0.10 0.09 0.09 0.09 0.08 0.08 0.09 0.08 0.08 0.07 0.08 0.10 0.13 0.12 0.08 0.07 0.09 0.11 0.13 0.15 0.09 0.07 0.11 0.15 0.15 0.12 0.11 0.10 0.10 0.10 0.10 0.09 0.08
0.12 0.12 0.12 0.11 0.10 0.10 0.09 0.08 0.08 0.08 0.08 0.07 0.07 0.07 0.07 0.07 0.07 0.08 0.09 0.10 0.10 0.11 0.17 0.20 0.16 0.14 0.11 0.11 0.15 0.13 0.13 0.21 0.14 0.12 0.11 0.08 0.07 0.06 0.06 0.05 0.05 0.05 0.04
0.11 0.10 0.09 0.09 0.09 0.08 0.06 0.06 0.06 0.06 0.06 0.06 0.05 0.05 0.05 0.05 0.07 0.10 0.11 0.13 0.16 0.19 0.21 0.24 0.20 0.15 0.14 0.13 0.20 0.20 0.19 0.21 0.18 0.11 0.10 0.07 0.06 0.04 0.04 0.05 0.05 0.05 0.03
0.09 0.07 0.05 0.04 0.03 0.02 0.02 0.02 0.02 0.02 0.03 0.03 0.03 0.03 0.03 0.03 0.06 0.10 0.12 0.16 0.22 0.26 0.25 0.26 0.23 0.18 0.15 0.18 0.23 0.25 0.25 0.21 0.16 0.12 0.13 0.11 0.13 0.16 0.19 0.18 0.14 0.10 0.05
0.04 0.02 0.02 0.01 0.01 0.01 0.00 0.00 0.00 0.01 0.02 0.03 0.04 0.04 0.03 0.03 0.04 0.07 0.10 0.15 0.22 0.27 0.28 0.29 0.26 0.24 0.22 0.26 0.33 0.35 0.38 0.34 0.24 0.16 0.21 0.15 0.15 0.20 0.23 0.26 0.24 0.15 0.09
0.04 0.03 0.02 0.02 0.02 0.01 0.00 0.00 0.00 0.01 0.03 0.05 0.07 0.07 0.05 0.04 0.07 0.10 0.09 0.09 0.12 0.14 0.22 0.33 0.37 0.35 0.36 0.41 0.50 0.49 0.45 0.44 0.38 0.30 0.38 0.31 0.23 0.27 0.24 0.27 0.31 0.26 0.19
0.05 0.04 0.03 0.03 0.05 0.02 0.00 0.00 0.00 0.01 0.04 0.06 0.07 0.08 0.10 0.11 0.10 0.08 0.07 0.08 0.12 0.19 0.25 0.32 0.43 0.45 0.45 0.47 0.54 0.56 0.53 0.48 0.39 0.38 0.49 0.45 0.28 0.28 0.28 0.44 0.51 0.46 0.36
0.06 0.05 0.04 0.05 0.07 0.06 0.01 0.00 0.00 0.02 0.04 0.05 0.06 0.06 0.06 0.10 0.09 0.09 0.08 0.12 0.17 0.25 0.26 0.36 0.46 0.51 0.53 0.55 0.56 0.55 0.58 0.58 0.49 0.39 0.44 0.46 0.37 0.31 0.33 0.52 0.60 0.64 0.54
0.06 0.05 0.05 0.07 0.08 0.09 0.02 0.00 0.01 0.02 0.04 0.05 0.07 0.10 0.09 0.08 0.10 0.10 0.08 0.14 0.24 0.28 0.38 0.57 0.69 0.70 0.66 0.64 0.59 0.58 0.60 0.62 0.60 0.55 0.46 0.49 0.49 0.43 0.44 0.56 0.67 0.66 0.62